GW3137 Weather Reports


time (UTC)temp
F
wind
direction
speed
knots
gust
knots
rain 1hr
in
rain 24hr
in
rain mn
in
humidity
%
barometer
mb
20260905200205 63 210 0.9 4.3 0.00 0.00 0.00 67 1017.8
20260905193203 63 204 0.9 6.1 0.00 0.00 0.00 69 1017.8
20260905190704 64 186 1.7 2.6 0.00 0.00 0.00 71 1018.0
20260905183704 63 172 2.6 5.2 0.00 0.00 0.00 73 1018.2
20260905183204 63 165 1.7 6.1 0.00 0.00 0.00 73 1018.1
20260905180204 63 189 1.7 5.2 0.00 0.00 0.00 74 1018.2
20260905173704 63 85 0.9 2.6 0.00 0.00 0.00 74 1018.1
20260905173204 62 251 0.0 6.1 0.00 0.00 0.00 73 1018.1
20260905170704 61 293 1.7 2.6 0.00 0.00 0.00 75 1018.0
20260905163704 61 308 1.7 2.6 0.00 0.00 0.00 74 1017.8
20260905163204 62 194 0.0 2.6 0.00 0.00 0.00 75 1017.8
20260905160704 60 269 0.9 1.7 0.00 0.00 0.00 78 1017.8
20260905160204 59 191 0.9 2.6 0.00 0.00 0.00 79 1017.9
20260905153704 58 281 0.9 1.7 0.00 0.00 0.00 84 1017.9
20260905153204 57 287 1.7 2.6 0.00 0.00 0.00 84 1018.0
20260905150704 56 128 0.0 1.7 0.00 0.00 0.00 86 1017.9
20260905150203 56 128 0.0 2.6 0.00 0.00 0.00 86 1017.8
20260905143704 55 113 0.9 2.6 0.00 0.00 0.00 87 1017.5
20260905143203 55 98 0.9 2.6 0.00 0.00 0.00 87 1017.5
20260905140704 54 112 0.0 0.9 0.00 0.00 0.00 87 1017.3
20260905133705 54 112 0.0 0.0 0.00 0.00 0.00 88 1017.2
20260905133203 54 112 0.0 0.0 0.00 0.00 0.00 88 1017.2
20260905130704 53 112 0.0 0.0 0.00 0.00 0.00 90 1017.2
20260905130204 53 112 0.0 0.0 0.00 0.00 0.00 89 1017.2
20260905123204 53 112 0.0 0.0 0.00 0.00 0.00 89 1017.0
20260905120703 53 112 0.0 0.0 0.00 0.00 0.00 90 1017.0
20260905120204 53 112 0.0 0.0 0.00 0.00 0.00 90 1017.0
20260905113703 53 112 0.0 0.0 0.00 0.00 0.00 90 1016.9
20260905113203 53 112 0.0 0.0 0.00 0.00 0.00 89 1016.9
20260905110204 53 112 0.0 0.0 0.00 0.00 0.00 89 1016.8
20260905103704 53 112 0.0 0.0 0.00 0.00 0.00 88 1016.6
20260905103203 53 112 0.0 0.0 0.00 0.00 0.00 89 1016.5
20260905100704 54 112 0.0 0.0 0.00 0.00 0.00 88 1016.5
20260905100204 54 112 0.0 0.9 0.00 0.00 0.00 87 1016.5
20260905093704 54 113 0.0 0.0 0.00 0.00 0.00 88 1016.5
20260905090204 54 113 0.0 0.9 0.00 0.00 0.00 87 1016.5
20260905083704 55 130 0.0 0.0 0.00 0.00 0.00 86 1016.3
20260905083205 55 130 0.0 0.0 0.00 0.00 0.00 86 1016.3
20260905080704 55 130 0.0 0.0 0.00 0.00 0.00 87 1016.2
20260905073704 57 130 0.0 0.0 0.00 0.00 0.00 84 1016.2
20260905073204 57 130 0.0 2.6 0.00 0.00 0.00 84 1016.1
20260905070704 56 52 0.0 0.0 0.00 0.00 0.00 86 1016.0
20260905070204 57 52 0.0 0.0 0.00 0.00 0.00 86 1016.0
20260905063704 57 52 0.0 0.0 0.00 0.02 0.00 85 1015.8
20260905063204 57 52 0.0 0.0 0.00 0.02 0.00 85 1015.8
20260905060704 58 52 0.0 0.9 0.00 0.03 0.00 84 1015.6
20260905060204 58 52 0.0 0.0 0.00 0.03 0.00 83 1015.5
20260905053704 60 52 0.0 0.0 0.00 0.03 0.00 80 1015.5
20260905053203 60 52 0.0 2.6 0.00 0.03 0.00 80 1015.5
20260905050704 59 52 0.0 0.0 0.00 0.03 0.00 85 1015.5
20260905050204 59 52 0.0 0.0 0.00 0.03 0.00 84 1015.5
20260905043703 60 52 0.0 1.7 0.00 0.03 0.00 83 1015.6
20260905043204 60 52 0.9 6.1 0.00 0.03 0.00 83 1015.5
20260905040704 61 57 2.6 4.3 0.00 0.03 0.00 82 1015.5
20260905040204 61 69 1.7 2.6 0.00 0.03 0.00 81 1015.5
20260905033704 61 53 0.9 2.6 0.00 0.03 0.00 81 1015.4
20260905033203 61 69 0.0 2.6 0.00 0.03 0.00 81 1015.5
20260905030204 62 63 0.9 4.3 0.00 0.03 0.00 79 1015.1
20260905023704 62 306 0.0 0.9 0.00 0.03 0.00 77 1014.9
20260905023204 62 306 0.0 7.0 0.00 0.03 0.00 77 1014.9
20260905020704 64 68 2.6 5.2 0.00 0.03 0.00 72 1014.8
20260905020203 64 69 2.6 5.2 0.00 0.03 0.00 72 1014.8
20260905013703 64 71 1.7 7.0 0.00 0.04 0.00 69 1014.8
20260905013204 64 93 2.6 10.4 0.00 0.04 0.00 69 1014.7
20260905010204 64 71 3.5 8.7 0.00 0.14 0.00 72 1014.3
20260905003703 66 70 4.3 7.8 0.00 0.21 0.00 71 1014.2
20260905003204 66 53 4.3 10.4 0.00 0.21 0.00 70 1014.2
20260905000704 67 70 4.3 10.4 0.00 0.21 0.00 66 1014.0
20260905000204 67 84 4.3 10.4 0.00 0.21 0.00 65 1014.0
20260904233704 70 258 1.7 2.6 0.00 0.21 0.00 53 1013.9
20260904230704 71 128 0.9 2.6 0.00 0.21 0.00 54 1013.6
20260904230204 71 351 1.7 8.7 0.00 0.21 0.00 55 1013.5
20260904223704 71 346 1.7 6.1 0.00 0.21 0.00 57 1013.3
20260904223204 70 13 1.7 7.8 0.00 0.21 0.00 60 1013.2
20260904220703 73 335 1.7 7.0 0.00 0.21 0.00 54 1013.3
20260904213704 73 322 0.9 2.6 0.00 0.21 0.00 55 1013.1
20260904213204 73 359 0.9 6.1 0.00 0.21 0.00 56 1013.1
20260904210704 71 190 1.7 5.2 0.00 0.21 0.00 58 1013.0
20260904210204 71 259 2.6 7.0 0.00 0.21 0.00 57 1013.1
20260904203704 69 323 0.9 2.6 0.00 0.21 0.00 60 1013.2
20260904203204 69 298 1.7 7.8 0.00 0.21 0.00 60 1013.2